User: anonymous   Login
Location: Unspecified
(0.0000°N, 0.0000°E)
Time: 10:14:02
(UTC+02:00)
Language:

SWIFT - Orbit

View from above orbital plane
View from above orbital plane
View from above satellite
View from above satellite

Ground track
Ground track

The orbit data is extracted from the following two-line orbital elements,

1 28485U 04047A   15147.81590793  .00002305  00000-0  13947-3 0  9999
2 28485 020.5582 341.2852 0012061 117.0890 243.0774 15.01730420575010
Epoch (UTC): 27 May 2015 19:34:54
Eccentricity: 0.0012061
inclination: 20.5582°
perigee height: 553 km
apogee height: 570 km
right ascension of ascending node: 341.2852°
argument of perigee: 117.0890°
revolutions per day: 15.01730420
mean anomaly at epoch: 243.0774°
orbit number at epoch: 57501

The dashed part of the orbit path shows where the satellite is in the earth's shadow,  

DLR